Change the Weather History Date:

Friday, May 24, 2013

  Actual Average (KRXE) Record (KRXE)
Temperature  
Mean Temperature 46 °F 55 °F  
Max Temperature 61 °F 68 °F 87 °F (2003)
Min Temperature 32 °F 41 °F 31 °F (2012)
Degree Days  
Heating Degree Days 18 10  
Month to date heating degree days 326  
Since 1 July heating degree days 7891  
Cooling Degree Days 0 0  
Month to date cooling degree days 0  
Year to date cooling degree days 0  
Moisture  
Dew Point 25 °F    
Average Humidity 50    
Maximum Humidity 93    
Minimum Humidity 16    
Precipitation  
Precipitation 0.03 in 0.06 in 0.90 in (2011)
Month to date precipitation 1.31  
Year to date precipitation 5.42  
Sea Level Pressure  
Sea Level Pressure 29.94 in    
Wind  
Wind Speed 11 mph (South)    
Max Wind Speed 20 mph    
Max Gust Speed 25 mph    
Visibility 10 miles    
Events Rain    
T = Trace of Precipitation, MM = Missing Value Source: NWS Daily Summary

Daily Weather History Graph

Daily Weather History Graph

Search for Another Location

Airport or City:

Trip Planner

Search our weather history database for the weather conditions in past years. The results will help you decide how hot, cold, wet, or windy it might be!

Date:

Astronomy

May. 24, 2013 Rise Set
Actual Time 5:50 AM MDT 8:52 PM MDT
Civil Twilight 5:16 AM MDT 9:27 PM MDT
Nautical Twilight 4:32 AM MDT 10:11 PM MDT
Astronomical Twilight 3:40 AM MDT 11:03 PM MDT
Moon 8:37 PM MDT (5/24) 5:27 AM MDT (5/24)
Length of Visible Light 16h 10m
Length of Day
15h 02m
Full, 100% of the Moon is Illuminated
May 24
Full
May 24
Full
May 31
Last Quarter
Jun 8
New
Jun 16
First Quarter

Hourly Weather History & Observations

Time (MDT) Temp. Windchill Dew Point Humidity Pressure Visibility Wind Dir Wind Speed Gust Speed Precip Events Conditions
12:41 AM 41.0 °F 34.7 °F 33.8 °F 76% 30.05 in 10.0 mi SSW 10.4 mph - 0.00 in Rain Light Rain
12:56 AM 39.9 °F 32.9 °F 34.9 °F 82% 29.92 in 10.0 mi South 11.5 mph - 0.00 in Rain Light Rain
1:28 AM 37.4 °F 29.8 °F 35.6 °F 93% 30.04 in 10.0 mi SE 11.5 mph - 0.03 in Rain Light Rain
1:37 AM 37.4 °F 29.8 °F 33.8 °F 87% 30.03 in 10.0 mi ESE 11.5 mph - 0.03 in Rain Light Rain
1:56 AM 37.9 °F 33.5 °F 34.0 °F 86% 29.88 in 10.0 mi SE 5.8 mph - 0.03 in   Mostly Cloudy
2:56 AM 39.9 °F - 32.0 °F 73% 29.84 in 10.0 mi Calm Calm - N/A   Partly Cloudy
3:56 AM 34.9 °F 26.2 °F 32.0 °F 89% 29.91 in 10.0 mi SSE 12.7 mph - N/A   Clear
4:56 AM 34.9 °F 27.7 °F 27.1 °F 73% 29.90 in 10.0 mi South 9.2 mph - N/A   Clear
5:56 AM 32.9 °F 24.7 °F 25.2 °F 73% 29.95 in 10.0 mi SSE 10.4 mph - N/A   Clear
6:56 AM 36.9 °F 30.1 °F 24.1 °F 60% 29.96 in 10.0 mi South 9.2 mph - N/A   Clear
7:56 AM 41.9 °F 35.4 °F 25.2 °F 52% 29.96 in 10.0 mi SSE 11.5 mph - N/A   Clear
8:56 AM 45.0 °F 39.3 °F 21.0 °F 39% 29.97 in 10.0 mi South 11.5 mph - N/A   Clear
9:56 AM 47.8 °F - 23.0 °F 38% 29.98 in 10.0 mi SSW 11.5 mph - N/A   Clear
10:56 AM 48.9 °F - 20.1 °F 32% 29.96 in 10.0 mi SSW 13.8 mph 20.7 mph N/A   Clear
11:56 AM 52.0 °F - 23.0 °F 32% 29.96 in 10.0 mi SSW 16.1 mph 20.7 mph N/A   Clear
12:56 PM 54.0 °F - 20.1 °F 27% 29.96 in 10.0 mi SW 10.4 mph 20.7 mph N/A   Clear
1:56 PM 55.9 °F - 21.0 °F 26% 29.94 in 10.0 mi SSW 10.4 mph 20.7 mph N/A   Clear
2:56 PM 59.9 °F - 22.1 °F 23% 29.91 in 10.0 mi South 17.3 mph - N/A   Partly Cloudy
3:56 PM 59.9 °F - 20.1 °F 22% 29.92 in 10.0 mi SSW 15.0 mph 25.3 mph N/A   Clear
4:56 PM 61.9 °F - 15.1 °F 16% 29.91 in 10.0 mi SW 18.4 mph 23.0 mph N/A   Clear
5:56 PM 61.9 °F - 17.1 °F 18% 29.90 in 10.0 mi SSW 13.8 mph - N/A   Clear
6:56 PM 61.0 °F - 18.1 °F 19% 29.89 in 10.0 mi SSW 19.6 mph - N/A   Clear
7:56 PM 59.0 °F - 21.0 °F 23% 29.88 in 10.0 mi South 11.5 mph - N/A   Clear
8:56 PM 50.9 °F - 25.2 °F 37% 29.91 in 10.0 mi SSE 8.1 mph - N/A   Clear
9:56 PM 45.9 °F 42.9 °F 24.1 °F 42% 29.92 in 10.0 mi ESE 5.8 mph - N/A   Clear
10:56 PM 41.9 °F 40.0 °F 27.1 °F 56% 29.92 in 10.0 mi Variable 3.5 mph - N/A   Clear
11:56 PM 43.0 °F - 23.0 °F 45% 29.88 in 10.0 mi Calm Calm - N/A   Clear